Content
SEND FEEDBACK

Daily
Averages
Monthly
Summary
Canada

MONTREAL, QUEBEC


Home > North America > Canada > Quebec
Elevation: 118 feet     Latitude: 45 28N     Longitude: 073 45W

WEATHER
 
SELECT A DAY
Number of Records: 198,773;   Date Range: 1/1/95 - 9/17/14
 
SHARE

PRINT THIS DATA

[ ← Previous Day ]
WEATHER ALMANAC - FEBRUARY 26, 2013
[ Next Day → ]
[ °C ]   °F
Weather ElementAverageHighLow
Temperature33.4 °F37.4 °F (12:00 pm)30 °F (7:00 am)
Dewpoint30.8 °F32 °F (1:00 am)28.4 °F (11:00 pm)
Humidity90.2 %100 % (1:00 am)70 % (11:00 pm)
Barometer30.28 in30.33 in (8:14 am)30.15 in (11:00 pm)
Wind Speed4.7 mph12.7 mph (5:17 pm)
Weather ElementAverage
Visibility4.4 mi
Wind DirectionENE (79.8 °)

Weather ElementTotal
Precipitation---
Heating Degree Days31.3 (Base 65)
Averaged from 41 records on February 26, 2013
WEATHER CONDITIONS BREAKOUT
WIND DIRECTION BREAKOUT
WEATHER BY HOUR - FEBRUARY 26, 2013
[ °C ]   °F
Local TimeTemperatureDewpointHumidityBarometerVisibilityWind DirectionWind SpeedGust SpeedPrecipitationEventsConditions
12:29 AM32.0 °F30.2 °F93 %30.26 in3.0 miSW (230°)3.5 mphOvercast
1:00 AM32.0 °F31.0 °F95 %30.27 in3.0 miSW (220°)3.5 mphMist
1:00 AM32.0 °F32.0 °F100 %30.27 in3.0 miSW (220°)3.5 mphOvercast
1:35 AM32.0 °F32.0 °F100 %30.27 in2.5 miSW (230°)4.6 mphOvercast
2:00 AM32.0 °F30.2 °F93 %30.27 in1.5 miWSW (240°)3.5 mphOvercast
2:15 AM32.0 °F32.0 °F100 %30.27 in0.8 miSW (220°)3.5 mphOvercast
2:40 AM32.0 °F30.2 °F93 %30.27 in0.5 miCalmFogLight Freezing Fog
3:00 AM30.2 °F30.2 °F100 %30.28 in0.5 miCalmFogLight Freezing Fog
3:12 AM30.2 °F30.2 °F100 %30.28 in0.1 miCalmFogLight Freezing Fog
4:00 AM30.2 °F30.2 °F100 %30.29 in0.1 miCalmFogLight Freezing Fog
5:00 AM30.2 °F30.2 °F100 %30.30 in0.2 miCalmFogLight Freezing Fog
6:00 AM30.2 °F30.2 °F100 %30.31 in0.2 miCalmFogLight Freezing Fog
7:00 AM30.0 °F30.0 °F100 %30.32 in0.0 miCalmFogHeavy Fog
7:00 AM30.2 °F30.2 °F100 %30.32 in0.2 miCalmFogLight Freezing Fog
7:38 AM30.2 °F30.2 °F100 %30.32 in0.8 miNE (50°)3.5 mphOvercast
7:43 AM30.2 °F30.2 °F100 %30.32 in1.0 miCalmOvercast
7:54 AM30.2 °F30.2 °F100 %30.32 in1.2 miCalmOvercast
8:00 AM30.2 °F30.2 °F100 %30.32 in1.2 miCalmOvercast
8:14 AM32.0 °F32.0 °F100 %30.33 in1.5 miCalmOvercast
8:45 AM32.0 °F32.0 °F100 %30.33 in1.2 miCalmOvercast
9:00 AM32.0 °F32.0 °F100 %30.33 in1.2 miSSW (210°)3.5 mphOvercast
9:28 AM33.8 °F32.0 °F93 %30.33 in1.5 miSE (140°)2.3 mphOvercast
10:00 AM35.6 °F32.0 °F87 %30.33 in1.8 miSSE (150°)3.5 mphMostly Cloudy
10:37 AM35.6 °F32.0 °F87 %30.32 in3.0 miEast (80°)4.6 mphMostly Cloudy
11:00 AM35.6 °F32.0 °F87 %30.32 in3.0 miEast (100°)5.8 mphMostly Cloudy
11:49 AM35.6 °F32.0 °F87 %30.32 in4.0 miEast (80°)4.6 mphOvercast
12:00 PM37.4 °F32.0 °F81 %30.32 in4.0 miESE (120°)6.9 mphOvercast
1:00 PM37.0 °F32.0 °F74 %30.30 in4.0 miESE (110°)4.6 mphMist
1:00 PM37.4 °F32.0 °F81 %30.30 in4.0 miEast (100°)5.8 mphMostly Cloudy
2:00 PM37.4 °F30.2 °F75 %30.29 in7.0 miEast (90°)6.9 mphMostly Cloudy
3:00 PM37.4 °F30.2 °F75 %30.27 in7.0 miENE (70°)6.9 mphOvercast
4:00 PM37.4 °F30.2 °F75 %30.24 in7.0 miENE (60°)11.5 mphOvercast
5:00 PM35.6 °F30.2 °F81 %30.24 in10.0 miNE (50°)11.5 mphOvercast
5:17 PM35.6 °F30.2 °F81 %30.24 in10.0 miNE (50°)12.7 mphOvercast
6:00 PM35.6 °F30.2 °F81 %30.23 in12.0 miNE (50°)11.5 mphScattered Clouds
7:00 PM34.0 °F30.0 °F80 %30.22 in10.0 miNE (40°)11.5 mphMostly Cloudy
7:00 PM33.8 °F30.2 °F87 %30.22 in10.0 miNE (40°)11.5 mphMostly Cloudy
8:00 PM35.6 °F30.2 °F81 %30.22 in15.0 miENE (60°)12.7 mphMostly Cloudy
9:00 PM35.6 °F30.2 °F81 %30.21 in15.0 miNE (50°)10.4 mphOvercast
10:00 PM35.6 °F30.2 °F81 %30.17 in15.0 miNE (50°)9.2 mphOvercast
11:00 PM37.4 °F28.4 °F70 %30.15 in15.0 miEast (80°)9.2 mphOvercast
Hourly data recorded from CYUL, located miles away from Montreal, Quebec







STORIES FROM OUR PARTNERS